Flag for Italy Weather past 2 weeks in Bologna, Italy

Now
66 °F

Scattered clouds.


Feels Like: 66 °F
Forecast: 44 / 58 °F
Wind: 5 mph from Northeast

Location: Bologna / Borgo Panigale

Current Time: Apr 18, 2015 at 2:26:36 PM

Latest Report: Apr 18, 2015 at 1:50 PM


Visibility: N/A

Pressure: 29.92 "Hg

Humidity: 64%

Dew point: 54 °F

Location of BolognaLocation

Historic Weather in Bologna — Graph

°F

Bologna temperature yesterday

Maximum temperature yesterday: 66 °F (at 12:20 AM)
Minimum temperature yesterday: 55 °F (at 5:20 AM)
Average temperature yesterday: 62 °F

Past Weeks' High & Low Weather Summary

 TemperatureHumidityPressure
High79 °F (Apr 15, 3:50 PM)100% (Apr 4, 7:20 PM)30.45 "Hg (Apr 4, 7:20 PM)
Low34 °F (Apr 6, 4:20 AM)19% (Apr 8, 4:20 PM)29.74 "Hg (Apr 4, 7:50 PM)
Average56 °F61%30.17 "Hg
* Reported Apr 3 1:20 PM — Apr 18 1:20 PM, Bologna, Weather by CustomWeather, © 2015

Note: Actual official high and low records may vary slightly from our data, if they occured in-between our weather recording intervals... More about our weather records

Advertising

Bologna weather history for previous 24 hours

 ConditionsComfort  
Time TempWeatherWind HumidityBarometerVisibility
1:20 PM
Sat, Apr 18
66 °FScattered clouds.3 mph60%29.92 "HgN/A
12:50 PM66 °FScattered clouds.5 mph60%29.92 "HgN/A
12:20 PM66 °FScattered clouds.3 mph64%29.92 "HgN/A
11:50 AM66 °FPassing clouds.2 mph68%29.92 "HgN/A
11:20 AM63 °FPartly sunny.3 mph73%29.92 "HgN/A
10:50 AM63 °FPartly sunny.3 mph68%29.92 "HgN/A
10:20 AM63 °FPartly sunny.3 mph68%29.92 "HgN/A
9:50 AM61 °FPartly sunny.2 mph77%29.92 "HgN/A
9:20 AM61 °FPartly sunny.2 mph77%29.92 "HgN/A
8:50 AM61 °FBroken clouds.No wind77%29.92 "Hg5 mi
8:20 AM59 °FBroken clouds.2 mph82%29.92 "Hg5 mi
7:50 AM57 °FPartly sunny.3 mph88%29.92 "Hg4 mi
7:20 AM55 °FPassing clouds.1 mph88%29.89 "Hg4 mi
6:50 AM55 °FPassing clouds.5 mph88%29.89 "Hg4 mi
6:20 AM55 °FPassing clouds.5 mph88%29.89 "Hg4 mi
5:50 AM55 °FPassing clouds.5 mph88%29.89 "Hg4 mi
5:20 AM55 °FPassing clouds.5 mph88%29.89 "Hg4 mi
4:50 AM55 °FPassing clouds.2 mph88%29.89 "Hg4 mi
4:20 AM55 °FPassing clouds.2 mph88%29.89 "Hg4 mi
3:50 AM55 °FPassing clouds.2 mph88%29.92 "Hg4 mi
3:20 AM54 °FPassing clouds.2 mph88%29.92 "Hg4 mi
2:50 AM55 °FPassing clouds.3 mph88%29.92 "HgN/A
2:20 AM54 °FClear.2 mph88%29.92 "Hg10 mi
1:50 AM57 °FClear.3 mph82%29.92 "Hg10 mi
1:20 AM57 °FPassing clouds.3 mph82%29.92 "HgN/A
12:50 AM57 °FPassing clouds.5 mph88%29.92 "HgN/A
12:20 AM59 °FPassing clouds.5 mph82%29.92 "HgN/A
11:50 PM
Fri, Apr 17
59 °FPassing clouds.6 mph82%29.92 "HgN/A
11:20 PM59 °FPassing clouds.3 mph77%29.92 "HgN/A
10:50 PM61 °FPassing clouds.5 mph77%29.95 "HgN/A
10:20 PM61 °FPassing clouds.3 mph83%29.92 "HgN/A
9:50 PM61 °FPassing clouds.3 mph83%29.92 "HgN/A
9:20 PM61 °FPassing clouds.2 mph83%29.92 "HgN/A
8:50 PM61 °FScattered clouds.2 mph83%29.92 "HgN/A
8:20 PM63 °FScattered clouds.5 mph73%29.92 "HgN/A
7:50 PM63 °FScattered clouds.5 mph73%29.92 "HgN/A
7:20 PM64 °FScattered clouds.7 mph68%29.92 "HgN/A
6:50 PM64 °FScattered clouds.7 mph68%29.92 "HgN/A
6:20 PM64 °FPartly sunny.8 mph64%29.92 "HgN/A
5:50 PM66 °FPartly sunny.6 mph64%29.92 "HgN/A
5:20 PM64 °FPartly sunny.9 mph64%29.92 "HgN/A
4:50 PM64 °FPartly sunny.9 mph64%29.95 "HgN/A
4:20 PM66 °FPartly sunny.3 mph64%29.95 "HgN/A
3:50 PM66 °FPartly sunny.5 mph68%29.95 "HgN/A
3:20 PM64 °FPartly sunny.6 mph68%29.98 "HgN/A
2:50 PM64 °FPartly sunny.3 mph68%29.98 "HgN/A
2:20 PM63 °FPartly sunny.3 mph73%29.98 "HgN/A
Weather by CustomWeather, © 2015

See weather overviewHow to use our weather pages